This is the latest recevied weather packets stored in our database for station/object SP9KB-13. If no packets are shown the sender has not sent any weather packets the latest 10 day(s).
| Time | Temp. | Humidity | Pressure | Rain* | Wind** | Luminosity | Snow |
|---|---|---|---|---|---|---|---|
| 1777548409 | 8.89° C | 38% | 1009.1 hPa | 0 mm | - | - | - |
| 1777548109 | 8.89° C | 37% | 1009.1 hPa | 0 mm | - | - | - |
| 1777547808 | 8.89° C | 38% | 1009.1 hPa | 0 mm | - | - | - |
| 1777547507 | 8.33° C | 37% | 1009 hPa | 0 mm | - | - | - |
| 1777547207 | 8.33° C | 38% | 1009.2 hPa | 0 mm | - | - | - |
| 1777546906 | 8.33° C | 37% | 1009.3 hPa | 0 mm | - | - | - |
| 1777546606 | 7.78° C | 40% | 1009.3 hPa | 0 mm | - | - | - |
| 1777546305 | 8.33° C | 38% | 1009.4 hPa | 0 mm | - | - | - |
| 1777546004 | 7.78° C | 39% | 1009.4 hPa | 0 mm | - | - | - |
| 1777545704 | 7.78° C | 39% | 1009.2 hPa | 0 mm | - | - | - |
| 1777545403 | 7.78° C | 39% | 1009.5 hPa | 0 mm | - | - | - |
| 1777545103 | 7.78° C | 39% | 1009.5 hPa | 0 mm | - | - | - |
| 1777544802 | 7.78° C | 40% | 1009.5 hPa | 0 mm | - | - | - |
| 1777544501 | 8.33° C | 41% | 1009.4 hPa | 0 mm | - | - | - |
| 1777544201 | 7.22° C | 40% | 1009.6 hPa | 0 mm | - | - | - |
| 1777543900 | 8.89° C | 40% | 1009.3 hPa | 0 mm | - | - | - |
| 1777543600 | 7.22° C | 41% | 1009.7 hPa | 0 mm | - | - | - |
| 1777543299 | 7.78° C | 41% | 1009.3 hPa | 0 mm | - | - | - |
| 1777542998 | 8.33° C | 41% | 1009.7 hPa | 0 mm | - | - | - |
| 1777542698 | 7.78° C | 41% | 1009.6 hPa | 0 mm | - | - | - |
| 1777542397 | 7.78° C | 40% | 1009.4 hPa | 0 mm | - | - | - |
| 1777542097 | 7.78° C | 43% | 1009.6 hPa | 0 mm | - | - | - |
| 1777541796 | 7.22° C | 41% | 1009.7 hPa | 0 mm | - | - | - |
| 1777541496 | 6.67° C | 42% | 1009.8 hPa | 0 mm | - | - | - |
| 1777541195 | 7.22° C | 43% | 1009.6 hPa | 0 mm | - | - | - |
* Rain latest hour (hover to see other rain measurements)
** Current wind speed in m/s (hover to see current wind gust speed)